{"data":{"norad_id":67852,"epoch":"2026-05-25T04:20:43.692000Z","epoch_age_seconds":59358,"freshness":"FRESH","line1":"1 67852U 26034C   26145.18106125  .00016007  00000+0  55126-3 0  9990","line2":"2 67852  53.1589 209.2075 0001342  91.1070 269.0085 15.30207900 15748","mean_motion":15.302079,"eccentricity":0.0001342,"inclination_deg":53.1589,"raan_deg":209.2075,"arg_perigee_deg":91.107,"mean_anomaly_deg":269.0085,"bstar":0.00055126,"rev_number":1574,"period_min":94.104859869041,"perigee_km":474.27176486257,"apogee_km":476.11119822701,"semimajor_km":6853.3284815448,"source":"CELESTRAK","updated_at":"2026-05-25T13:38:21.724997Z"}}